This demonstration page uses our WeatherBlox Daily Observations layout. Learn more.

Left ArrowRight Arrow

38.20091, -84.87328

Hourly Observations for March 14, 2022

Temp ( °F °C ) Dew Point ( °F °C ) Humidity (%) Winds ( mph kmh ) Pressure ( in mb ) Visibility ( mi km ) Precip ( " mm )
12:53 am 00:53 Clear 40 4.4 26 -3.3 58 58 S 3 6 30.27 1025 10 16 0.00 0.00
1:53 am 01:53 Clear 42 5.6 26 -3.3 53 53 SSW 5 7 30.27 1025 10 16 0.00 0.00
2:53 am 02:53 Clear 41 5 25 -3.9 53 53 S 6 9 30.28 1025 10 16 0.00 0.00
3:53 am 03:53 Clear 40 4.4 24 -4.4 53 53 S 5 7 30.28 1026 10 16 0.00 0.00
4:53 am 04:53 Clear 40 4.4 24 -4.4 53 53 S 6 9 30.29 1026 10 16 0.00 0.00
5:53 am 05:53 Clear 39 3.9 23 -5 53 53 S 6 9 30.30 1026 10 16 0.00 0.00
6:53 am 06:53 Clear 39 3.9 24 -4.4 55 55 S 8 13 30.31 1026 10 16 0.00 0.00
7:53 am 07:53 Sunny 37 2.8 23 -5 57 57 S 7 11 30.33 1027 10 16 0.00 0.00
8:53 am 08:53 Sunny 41 5 25 -3.9 53 53 S 6 9 30.34 1027 10 16 0.00 0.00
9:53 am 09:53 Sunny 49 9.4 25 -3.9 39 39 S 10 17 30.35 1028 10 16 0.00 0.00
10:53 am 10:53 Sunny 53 11.7 25 -3.9 34 34 SW 13 20 30.35 1028 10 16 0.00 0.00
11:53 am 11:53 Sunny 57 13.9 25 -3.9 29 29 SW 14 22 30.34 1028 10 16 0.00 0.00
12:53 pm 12:53 Sunny 59 15 26 -3.3 28 28 S 16 26 30.32 1027 10 16 0.00 0.00
1:53 pm 13:53 Sunny 61 16.1 27 -2.8 27 27 SSW 10 17 30.29 1026 10 16 0.00 0.00
2:53 pm 14:53 Sunny 63 17.2 26 -3.3 25 25 S 14 22 30.27 1025 10 16 0.00 0.00
3:53 pm 15:53 Sunny 64 17.8 26 -3.3 24 24 SSW 14 22 30.25 1024 10 16 0.00 0.00
4:53 pm 16:53 Sunny 65 18.3 26 -3.3 23 23 SSW 17 28 30.23 1024 10 16 0.00 0.00
5:53 pm 17:53 Sunny 65 18.3 28 -2.2 25 25 S 12 19 30.22 1023 10 16 0.00 0.00
6:53 pm 18:53 Sunny 63 17.2 27 -2.8 26 26 SSW 12 19 30.22 1023 10 16 0.00 0.00
7:53 pm 19:53 Clear 58 14.4 27 -2.8 31 31 SW 5 7 30.24 1024 10 16 0.00 0.00
8:53 pm 20:53 Clear 49 9.4 31 -0.6 50 50 Calm 30.24 1024 10 16 0.00 0.00
9:53 pm 21:53 Clear 49 9.4 29 -1.7 46 46 Calm 30.24 1024 10 16 0.00 0.00
10:53 pm 22:53 Clear 46 7.8 31 -0.6 56 56 Calm 30.24 1024 10 16 0.00 0.00
11:53 pm 23:53 Clear 44 6.7 31 -0.6 60 60 SSW 5 7 30.26 1025 10 16 0.00 0.00

Powered by AerisWeather